Language: 


Des rapports , des résumés tant et plus, au choix de chacun....


Données Historiques de Météogheer
Journalier Rapport pour Novembre 29, 2017 Unitée:  Impériale    Métrique   Les deux
Suivant Jour »
Journalier Hebdomadaire Mensuel Annuel Sur mesure
  Max: Min: Moyenne:
Température: 45.7 °F 33.6 °F 38.8 °F
Point de rosée: 46.4 °F 33.8 °F 38.8 °F
Humidité: 98% 93% 98%
Vent: 13.4mph 0mph 3.2mph
Rafales: 15.4mph - -
Vent- - West
Pression: 29.8 in 29.6 in -
Pluie: 0.52 in    
Historical Graphs
 
 
Données tabulaires pour Novembre 29, 2017
Heure Température Point de rosée Pression Vent Vent Rafales Humidité Pluie Taux (Horaire) Conditions
00:03 33.6 °F 33.8 °F 29.7 in West 3.1 mph 5.6 mph 98% 0 in
00:13 34 °F 33.8 °F 29.7 in WSW 4 mph 7.8 mph 98% 0 in
00:18 34.3 °F 33.8 °F 29.7 in West 5.6 mph 8.7 mph 98% 0 in
00:23 34.5 °F 33.8 °F 29.7 in West 2 mph 8.7 mph 98% 0 in
00:28 34.7 °F 35.6 °F 29.7 in NW 6 mph 8.5 mph 98% 0 in
00:38 35.1 °F 35.6 °F 29.7 in WSW 4.3 mph 9.6 mph 98% 0 in
00:43 35.2 °F 35.6 °F 29.6 in West 7.8 mph 9.6 mph 98% 0 in
00:48 35.4 °F 35.6 °F 29.6 in West 8.1 mph 9.8 mph 98% 0 in
00:53 35.4 °F 35.6 °F 29.6 in West 10.3 mph 10.3 mph 98% 0 in
00:58 35.6 °F 35.6 °F 29.7 in West 8.1 mph 10.5 mph 98% 0 in
01:08 35.8 °F 35.6 °F 29.7 in West 7.6 mph 10.3 mph 98% 0 in
01:13 35.8 °F 35.6 °F 29.7 in West 4.7 mph 8.1 mph 98% 0 in
01:18 35.8 °F 35.6 °F 29.7 in West 6.5 mph 8.1 mph 98% 0 in
01:23 36 °F 35.6 °F 29.7 in West 5.8 mph 7.4 mph 98% 0 in
01:33 36.1 °F 37.4 °F 29.6 in West 3.4 mph 6.5 mph 98% 0.01 in
01:39 36.3 °F 37.4 °F 29.6 in WSW 2.9 mph 6.5 mph 98% 0.01 in
01:44 36.3 °F 37.4 °F 29.7 in WSW 1.1 mph 5.8 mph 98% 0.01 in
01:49 36.5 °F 37.4 °F 29.7 in West 5.4 mph 5.6 mph 98% 0.01 in
01:54 36.5 °F 37.4 °F 29.7 in WSW 6.5 mph 6.5 mph 98% 0.01 in
01:59 36.7 °F 37.4 °F 29.7 in West 7.4 mph 7.4 mph 98% 0.01 in
02:09 36.9 °F 37.4 °F 29.7 in West 2.5 mph 8.5 mph 98% 0.02 in
02:14 36.9 °F 37.4 °F 29.6 in West 4 mph 8.1 mph 98% 0.03 in
02:19 36.9 °F 37.4 °F 29.6 in West 1.1 mph 6 mph 98% 0.05 in
02:24 36.9 °F 37.4 °F 29.6 in WSW 2.2 mph 6 mph 98% 0.05 in
02:29 36.9 °F 37.4 °F 29.7 in West 3.1 mph 4 mph 98% 0.06 in
02:34 36.9 °F 37.4 °F 29.7 in West 4.5 mph 5.8 mph 98% 0.05 in
02:39 36.9 °F 37.4 °F 29.7 in West 6 mph 7.4 mph 98% 0.06 in
02:44 36.9 °F 37.4 °F 29.7 in WSW 7.6 mph 7.6 mph 98% 0.06 in
02:54 36.9 °F 37.4 °F 29.7 in WSW 5.4 mph 8.5 mph 98% 0.07 in
02:59 36.9 °F 37.4 °F 29.7 in WSW 4.7 mph 7.6 mph 98% 0.07 in
03:09 36.9 °F 37.4 °F 29.7 in SW 4.7 mph 6.3 mph 98% 0.07 in
03:14 36.9 °F 37.4 °F 29.7 in WSW 5.4 mph 6.3 mph 98% 0.06 in
03:19 36.9 °F 37.4 °F 29.7 in WSW 5.8 mph 6.3 mph 98% 0.05 in
03:29 36.9 °F 37.4 °F 29.6 in SW 3.8 mph 6 mph 98% 0.04 in
03:34 36.9 °F 37.4 °F 29.6 in Calm   6 mph 98% 0.04 in
03:39 37 °F 37.4 °F 29.6 in Calm   5.6 mph 98% 0.02 in
03:49 37 °F 37.4 °F 29.7 in Calm   3.8 mph 98% 0.03 in
03:54 37 °F 37.4 °F 29.7 in WSW 5.4 mph 6 mph 98% 0.06 in
03:59 37 °F 37.4 °F 29.7 in WSW 2.9 mph 6 mph 98% 0.07 in
04:04 37.2 °F 37.4 °F 29.7 in SW 5.4 mph 6.5 mph 98% 0.09 in
04:09 37.4 °F 37.4 °F 29.7 in WSW 7.2 mph 15.4 mph 98% 0.07 in
04:16 37.6 °F 37.4 °F 29.6 in WSW 7.4 mph 15.4 mph 98% 0.09 in
04:21 37.6 °F 37.4 °F 29.6 in WSW 6 mph 12.1 mph 98% 0.09 in
04:24 37.6 °F 37.4 °F 29.6 in WSW 5.6 mph 8.7 mph 98% 0.09 in
04:25 37.6 °F 37.4 °F 29.6 in WSW 4.3 mph 8.7 mph 98% 0.09 in
04:26 37.6 °F 37.4 °F 29.6 in WSW 5.6 mph 8.7 mph 98% 0.09 in
04:27 37.6 °F 37.4 °F 29.6 in WSW 4.7 mph 8.7 mph 98% 0.09 in
04:32 37.4 °F 37.4 °F 29.6 in Calm   6 mph 98% 0.09 in
04:35 37.4 °F 37.4 °F 29.6 in Calm   5.6 mph 98% 0.09 in
04:40 37.4 °F 37.4 °F 29.6 in WSW 2.5 mph 2.9 mph 98% 0.07 in
04:45 37.4 °F 37.4 °F 29.6 in WSW 5.4 mph 5.6 mph 98% 0.06 in
05:00 37.4 °F 37.4 °F 29.6 in West 5.4 mph 6.5 mph 98% 0.02 in
05:05 37.6 °F 37.4 °F 29.6 in WSW 6.5 mph 8.1 mph 98% 0.01 in
05:10 37.9 °F 37.4 °F 29.6 in West 6 mph 8.5 mph 98% 0.01 in
05:20 38.5 °F 39.2 °F 29.6 in West 3.6 mph 12.5 mph 98% 0.01 in
05:25 38.5 °F 39.2 °F 29.6 in WSW 8.5 mph 11.2 mph 98% 0.01 in
05:30 38.5 °F 39.2 °F 29.6 in WSW 4.9 mph 8.5 mph 98% 0.01 in
05:35 38.5 °F 39.2 °F 29.6 in WSW 4.9 mph 8.5 mph 98% 0.01 in
05:50 38.5 °F 39.2 °F 29.6 in WSW 7.4 mph 11.2 mph 98% 0.02 in
05:55 38.5 °F 39.2 °F 29.6 in WSW 6.3 mph 11.2 mph 98% 0.02 in
06:00 38.5 °F 39.2 °F 29.6 in West 9.8 mph 10.7 mph 98% 0.02 in
06:10 38.5 °F 39.2 °F 29.6 in West 6.5 mph 14.8 mph 98% 0.01 in
06:15 38.5 °F 39.2 °F 29.6 in WSW 5.6 mph 10.5 mph 98% 0.01 in
06:20 38.5 °F 39.2 °F 29.6 in West 6 mph 9.8 mph 98% 0.01 in
06:26 38.3 °F 39.2 °F 29.6 in West 8.5 mph 8.7 mph 98% 0.01 in
06:31 38.5 °F 39.2 °F 29.6 in WSW 8.5 mph 10.3 mph 98% 0.01 in
06:36 38.7 °F 39.2 °F 29.6 in WNW 8.7 mph 13.2 mph 98% 0.01 in
06:42 38.8 °F 39.2 °F 29.6 in West 13.4 mph 13.4 mph 98% 0.01 in
06:52 38.8 °F 39.2 °F 29.6 in WSW 7.6 mph 14.5 mph 98% 0.02 in
06:57 38.8 °F 39.2 °F 29.6 in West 8.7 mph 13.2 mph 98% 0.02 in
07:02 39 °F 39.2 °F 29.6 in West 5.8 mph 13.2 mph 98% 0.04 in
07:07 39 °F 39.2 °F 29.6 in West 2.9 mph 8.9 mph 98% 0.04 in
07:12 39 °F 39.2 °F 29.6 in West 1.1 mph 7.4 mph 98% 0.04 in
07:22 39 °F 39.2 °F 29.6 in West 5.8 mph 9.6 mph 98% 0.09 in
07:32 39.2 °F 39.2 °F 29.6 in West 6.5 mph 7.8 mph 98% 0.09 in
07:37 39.2 °F 39.2 °F 29.6 in West 7.2 mph 7.6 mph 98% 0.09 in
07:42 39.2 °F 39.2 °F 29.6 in West 7.2 mph 7.6 mph 98% 0.07 in
07:47 39.4 °F 39.2 °F 29.6 in West 7.6 mph 10.3 mph 98% 0.06 in
07:52 39.4 °F 39.2 °F 29.6 in West 12.3 mph 12.3 mph 98% 0.06 in
07:57 39.6 °F 39.2 °F 29.6 in West 7.4 mph 12.3 mph 98% 0.07 in
08:03 39.6 °F 39.2 °F 29.6 in West 5.6 mph 12.8 mph 98% 0.06 in
08:08 39.6 °F 39.2 °F 29.6 in West 3.4 mph 12.8 mph 98% 0.06 in
08:13 39.7 °F 39.2 °F 29.6 in WSW 4.9 mph 8.5 mph 98% 0.05 in
08:23 39.4 °F 39.2 °F 29.6 in WNW 4.9 mph 8.5 mph 98% 0.01 in
08:33 39.6 °F 39.2 °F 29.6 in West 7.4 mph 10.7 mph 98% 0.01 in
08:38 39.6 °F 39.2 °F 29.6 in West 6.9 mph 8.5 mph 98% 0.01 in
08:43 39.6 °F 39.2 °F 29.6 in West 2.2 mph 9.4 mph 98% 0.01 in
08:45 39.7 °F 39.2 °F 29.6 in West 6.3 mph 9.4 mph 98% 0.01 in
08:50 39.7 °F 39.2 °F 29.6 in Calm   9.4 mph 98% 0.01 in
09:05 39.4 °F 39.2 °F 29.6 in NE 3.1 mph 8.1 mph 98% 0.03 in
09:10 39.2 °F 39.2 °F 29.6 in North 0.9 mph 8.1 mph 98% 0.04 in
09:15 39.2 °F 39.2 °F 29.6 in Calm   5.8 mph 98% 0.04 in
09:20 39 °F 39.2 °F 29.6 in Calm   2.2 mph 98% 0.04 in
09:25 38.8 °F 39.2 °F 29.7 in NNE 2.9 mph 7.8 mph 98% 0.04 in
09:30 38.7 °F 39.2 °F 29.7 in ENE 4.7 mph 7.8 mph 98% 0.04 in
09:36 38.5 °F 39.2 °F 29.7 in Calm   7.6 mph 98% 0.04 in
09:46 38.3 °F 39.2 °F 29.7 in Calm   5.6 mph 98% 0.05 in
09:51 38.1 °F 37.4 °F 29.7 in Calm   5.6 mph 98% 0.05 in
10:01 37.9 °F 37.4 °F 29.7 in NNE 5.6 mph 5.8 mph 98% 0.06 in
10:06 37.8 °F 37.4 °F 29.7 in NNE 3.1 mph 7.6 mph 98% 0.05 in
10:11 37.6 °F 37.4 °F 29.7 in ENE 3.4 mph 7.6 mph 98% 0.07 in
10:16 37.6 °F 37.4 °F 29.7 in Calm   4.3 mph 98% 0.09 in
10:21 37.6 °F 37.4 °F 29.7 in Calm   3.8 mph 98% 0.1 in
10:26 37.6 °F 37.4 °F 29.7 in Calm   0.9 mph 98% 0.1 in
10:31 37.8 °F 37.4 °F 29.7 in Calm     98% 0.1 in
10:46 38.1 °F 37.4 °F 29.7 in Calm     98% 0.1 in
10:56 38.7 °F 39.2 °F 29.6 in Calm     98% 0.1 in
11:01 38.8 °F 39.2 °F 29.6 in Calm   2.9 mph 98% 0.09 in
11:06 39 °F 39.2 °F 29.6 in Calm   2.9 mph 98% 0.06 in
11:11 39.2 °F 39.2 °F 29.7 in Calm     98% 0.03 in
11:16 39.6 °F 39.2 °F 29.7 in WSW 1.6 mph 1.6 mph 98% 0.02 in
11:21 39.7 °F 39.2 °F 29.7 in Calm   1.6 mph 98% 0.01 in
11:26 39.9 °F 39.2 °F 29.6 in Calm   3.6 mph 98% 0.01 in
11:31 39.7 °F 39.2 °F 29.6 in Calm   3.6 mph 98% 0.01 in
11:36 39.7 °F 39.2 °F 29.6 in South 1.1 mph 2.7 mph 98% 0.01 in
11:41 39.7 °F 39.2 °F 29.7 in Calm   2 mph 98% 0 in
11:46 39.7 °F 39.2 °F 29.7 in Calm   2 mph 98% 0 in
11:51 39.7 °F 39.2 °F 29.7 in Calm   2 mph 98% 0 in
11:56 39.7 °F 39.2 °F 29.6 in Calm   2 mph 98% 0 in
12:01 40.3 °F 41 °F 29.6 in Calm     98% 0 in
12:21 42.3 °F 42.8 °F 29.7 in Calm     98% 0 in
12:26 42.6 °F 42.8 °F 29.7 in Calm     98% 0 in
12:31 43 °F 42.8 °F 29.7 in Calm     98% 0 in
12:36 42.8 °F 42.8 °F 29.7 in NNW 3.1 mph 5.4 mph 98% 0 in
12:46 42.1 °F 42.8 °F 29.7 in Calm   7.8 mph 98% 0.02 in
12:51 42.3 °F 42.8 °F 29.7 in Calm   7.2 mph 98% 0.02 in
12:56 42.3 °F 42.8 °F 29.7 in WNW 3.1 mph 7.2 mph 98% 0.02 in
13:02 42.8 °F 42.8 °F 29.7 in West 5.6 mph 6.3 mph 98% 0.02 in
13:12 44.1 °F 44.6 °F 29.7 in West 0.9 mph 8.5 mph 98% 0.02 in
13:17 44.6 °F 44.6 °F 29.7 in WNW 4.7 mph 8.7 mph 98% 0.02 in
13:22 44.6 °F 44.6 °F 29.7 in NW 7.4 mph 8.7 mph 98% 0.02 in
13:32 45.3 °F 44.6 °F 29.7 in North 7.4 mph 9.8 mph 98% 0.02 in
13:37 45.3 °F 44.6 °F 29.7 in WNW 6.5 mph 10.1 mph 98% 0.02 in
13:42 45.7 °F 46.4 °F 29.7 in North 6.9 mph 11.9 mph 98% 0.01 in
13:52 45.5 °F 44.6 °F 29.7 in WNW 7.6 mph 7.8 mph 96% 0 in
13:57 45.3 °F 44.6 °F 29.7 in WNW 2.9 mph 8.7 mph 96% 0 in
14:02 45 °F 42.8 °F 29.7 in North 1.3 mph 14.8 mph 93% 0 in
14:07 45.1 °F 42.8 °F 29.7 in West 5.6 mph 14.8 mph 93% 0 in
14:22 44.1 °F 42.8 °F 29.7 in West 6.5 mph 13.2 mph 93% 0 in
14:28 44.1 °F 42.8 °F 29.7 in WNW 5.6 mph 13.2 mph 94% 0 in
14:33 44.1 °F 42.8 °F 29.7 in WNW 5.8 mph 8.5 mph 94% 0 in
14:38 43.5 °F 42.8 °F 29.7 in NNW 4.9 mph 9.4 mph 93% 0 in
14:43 43.3 °F 42.8 °F 29.7 in WNW 3.8 mph 9.4 mph 93% 0 in
14:53 42.8 °F 41 °F 29.7 in West 2.9 mph 9.6 mph 93% 0 in
15:13 43 °F 41 °F 29.7 in West 4.7 mph 9.6 mph 94% 0 in
15:18 42.4 °F 41 °F 29.7 in NNW 3.6 mph 8.5 mph 94% 0 in
15:28 41.7 °F 41 °F 29.6 in WNW 3.1 mph 6.3 mph 94% 0.01 in
15:33 41.4 °F 39.2 °F 29.6 in WNW 2.5 mph 4.9 mph 94% 0.01 in
15:38 41.2 °F 41 °F 29.6 in SW 4 mph 7.6 mph 95% 0.01 in
15:44 41 °F 41 °F 29.7 in WSW 3.4 mph 7.6 mph 95% 0.01 in
15:49 41 °F 41 °F 29.7 in SW 6.3 mph 7.6 mph 96% 0.01 in
15:54 40.8 °F 41 °F 29.7 in WNW 4.5 mph 6.5 mph 96% 0.01 in
15:59 40.6 °F 39.2 °F 29.7 in WSW 3.1 mph 5.8 mph 97% 0.01 in
16:04 40.5 °F 39.2 °F 29.7 in WNW 2.5 mph 5.6 mph 97% 0.01 in
16:09 40.5 °F 39.2 °F 29.7 in West 2.9 mph 6 mph 97% 0.01 in
16:14 40.3 °F 39.2 °F 29.7 in WNW 3.8 mph 6 mph 97% 0.01 in
16:24 40.3 °F 41 °F 29.7 in West 2.7 mph 5.8 mph 98% 0.01 in
16:34 40.1 °F 41 °F 29.6 in West 2.5 mph 6.3 mph 98% 0 in
16:39 39.9 °F 39.2 °F 29.6 in Calm   6.3 mph 98% 0 in
16:44 39.7 °F 39.2 °F 29.6 in West 3.1 mph 5.4 mph 98% 0 in
16:49 39.6 °F 39.2 °F 29.6 in Calm   5.6 mph 98% 0 in
16:59 39.4 °F 39.2 °F 29.7 in West 3.6 mph 6.3 mph 98% 0 in
17:04 39.2 °F 39.2 °F 29.7 in Calm   6.3 mph 98% 0 in
17:09 38.8 °F 39.2 °F 29.7 in West 3.8 mph 4.3 mph 98% 0 in
17:19 38.5 °F 39.2 °F 29.7 in Calm   4.3 mph 98% 0 in
17:24 38.3 °F 39.2 °F 29.7 in Calm   4 mph 98% 0 in
17:29 38.1 °F 37.4 °F 29.7 in Calm   4.3 mph 98% 0 in
17:39 38.1 °F 37.4 °F 29.7 in Calm   3.8 mph 98% 0 in
17:49 38.1 °F 37.4 °F 29.7 in West 2.7 mph 3.6 mph 98% 0 in
17:54 38.1 °F 37.4 °F 29.7 in Calm   4.9 mph 98% 0 in
17:59 37.9 °F 37.4 °F 29.7 in Calm   4.9 mph 98% 0 in
18:04 37.9 °F 37.4 °F 29.7 in WNW 2 mph 3.8 mph 98% 0 in
18:09 37.9 °F 37.4 °F 29.7 in WNW 2 mph 5.8 mph 98% 0 in
18:14 38.1 °F 37.4 °F 29.7 in Calm   5.8 mph 98% 0 in
18:19 38.3 °F 39.2 °F 29.7 in Calm   4.3 mph 98% 0 in
18:29 38.5 °F 39.2 °F 29.7 in Calm   3.6 mph 98% 0 in
18:34 38.5 °F 39.2 °F 29.7 in Calm   4 mph 98% 0 in
18:39 38.5 °F 39.2 °F 29.7 in Calm   4 mph 98% 0 in
18:44 38.5 °F 39.2 °F 29.7 in North 4.9 mph 5.4 mph 98% 0 in
18:54 38.8 °F 39.2 °F 29.7 in WNW 2.9 mph 7.4 mph 98% 0 in
19:04 38.7 °F 39.2 °F 29.7 in Calm   6 mph 98% 0 in
19:14 38.5 °F 39.2 °F 29.7 in NW 4.9 mph 4.9 mph 98% 0 in
19:20 38.5 °F 39.2 °F 29.7 in Calm   4.9 mph 98% 0 in
19:30 38.8 °F 39.2 °F 29.7 in Calm   4.9 mph 98% 0.01 in
19:35 39.2 °F 39.2 °F 29.7 in Calm   4.7 mph 98% 0.01 in
19:40 39.2 °F 39.2 °F 29.7 in WNW 3.8 mph 3.8 mph 98% 0.01 in
19:45 39.4 °F 39.2 °F 29.7 in West 1.6 mph 3.8 mph 98% 0.01 in
19:50 39.4 °F 39.2 °F 29.7 in Calm   3.6 mph 98% 0.01 in
19:55 39.4 °F 39.2 °F 29.7 in Calm   4 mph 98% 0.01 in
20:00 39.4 °F 39.2 °F 29.7 in Calm   4 mph 98% 0.01 in
20:10 39.2 °F 39.2 °F 29.7 in Calm   1.6 mph 98% 0.01 in
20:20 38.8 °F 39.2 °F 29.7 in Calm   2.9 mph 98% 0.01 in
20:25 38.7 °F 39.2 °F 29.7 in Calm   2.9 mph 98% 0.01 in
20:30 38.5 °F 39.2 °F 29.8 in Calm   2 mph 98% 0 in
20:35 38.5 °F 39.2 °F 29.8 in Calm   2.9 mph 98% 0 in
20:40 38.5 °F 39.2 °F 29.8 in Calm   2.9 mph 98% 0 in
20:45 38.7 °F 39.2 °F 29.7 in Calm   3.8 mph 98% 0 in
20:50 38.7 °F 39.2 °F 29.7 in Calm   4.3 mph 98% 0 in
20:55 38.8 °F 39.2 °F 29.7 in WNW 2.7 mph 5.4 mph 98% 0.01 in
21:00 39.2 °F 39.2 °F 29.7 in North 2.5 mph 6.5 mph 98% 0.01 in
21:05 39.2 °F 39.2 °F 29.7 in North 2.7 mph 6.5 mph 98% 0.01 in
21:10 39.2 °F 39.2 °F 29.7 in NNW 3.1 mph 5.6 mph 98% 0.01 in
21:15 39 °F 39.2 °F 29.7 in North 3.4 mph 4.9 mph 98% 0.01 in
21:20 38.8 °F 39.2 °F 29.7 in NNW 2.2 mph 4 mph 98% 0.01 in
21:25 38.7 °F 39.2 °F 29.7 in Calm   4 mph 98% 0.01 in
21:30 38.5 °F 39.2 °F 29.7 in Calm   2.9 mph 98% 0.01 in
21:35 38.3 °F 39.2 °F 29.7 in Calm   2.9 mph 98% 0.01 in
21:40 38.1 °F 37.4 °F 29.7 in Calm     98% 0.01 in
21:45 38.1 °F 37.4 °F 29.7 in Calm   2.7 mph 98% 0.01 in
21:55 37.9 °F 37.4 °F 29.7 in Calm   2.9 mph 98% 0 in
22:00 37.8 °F 37.4 °F 29.7 in Calm   2.9 mph 98% 0 in
22:05 37.4 °F 37.4 °F 29.7 in Calm     98% 0 in
22:10 36.9 °F 37.4 °F 29.7 in Calm     98% 0 in
22:15 36.3 °F 37.4 °F 29.7 in Calm     98% 0 in
22:35 35.2 °F 35.6 °F 29.7 in Calm   2.9 mph 98% 0 in
22:45 35.6 °F 35.6 °F 29.8 in WNW 4.9 mph 5.6 mph 98% 0 in
22:50 35.8 °F 35.6 °F 29.8 in Calm   5.6 mph 98% 0 in
22:55 36 °F 35.6 °F 29.8 in Calm   4.3 mph 98% 0 in
23:00 36 °F 35.6 °F 29.8 in Calm     98% 0 in
23:05 36 °F 35.6 °F 29.8 in Calm     98% 0 in
23:10 36 °F 35.6 °F 29.8 in Calm     98% 0.01 in
23:15 35.8 °F 35.6 °F 29.7 in Calm     98% 0.01 in
23:25 35.4 °F 35.6 °F 29.7 in Calm     98% 0.01 in
23:31 35.4 °F 35.6 °F 29.7 in Calm     98% 0.01 in
23:41 36 °F 35.6 °F 29.8 in NW 3.8 mph 5.4 mph 98% 0.01 in
23:46 36.9 °F 37.4 °F 29.8 in WNW 4.7 mph 5.6 mph 98% 0.01 in
23:51 37.2 °F 37.4 °F 29.8 in West 5.8 mph 7.2 mph 98% 0.01 in
Données Historique de Météo Turbie

Mise a jour : 26/05/2018 06:00:13
Généré par Cumulus 1.9.4 (1099)